Погода в Далласе

США     32°49′10″N   96°43′35″W
темп.,
°C
ветер,
м/с
пор.,
м/с
влажн.,
%
обл.,
%
осадки,
мм/ч
давл.,
гПа
погр.,
м
19 апреля, пн
пн1901:00+13вюв12483 0.0 101920
04:00+11ю22550 0.0 101839
07:00+10юз22620 0.0 101937
10:00+16ююз344293 0.0 1020432
13:00+20ююз3330100 0.0 10181501
16:00+21ююз3329100 0.0 10152193
19:00+20ю4641100 0.0 1014438
22:00+16ююв495578 0.0 1016267
20 апреля, вт
вт2001:00+14ю411620 0.0 1015309
04:00+13ююз412640 0.0 1014350
07:00+12ююз311710 0.0 1015339
10:00+18зюз48540 0.0 1016649
13:00+19ссз984998 0.0 10171081
16:00+14ссз8105144 0.0 10191147
19:00+10с8115213 0.0 10221177
22:00+8с612565 0.0 10261014
21 апреля, ср
ср2101:00+6ссв412610 0.0 1026809
04:00+5ссв410605 0.0 1027552
07:00+4св37641 0.0 1028355
10:00+9св3542100 0.0 1029737
13:00+14всв3329100 0.0 10271262
16:00+16всв4430100 0.0 10231362
19:00+14в4440100 0.0 10221150
22:00+12в2650100 0.0 1023374
22 апреля, чт
чт2201:00+11вюв245489 0.0 1023180
04:00+10вюв2753100 0.0 1022224
07:00+8вюв385844 0.0 1023273
10:00+11юв4856100 0.0 1024442
13:00+13юв5751100 0.0 1022750
16:00+18юв5746100 0.0 10181301
19:00+15вюв3767100 0.1 1017314
22:00+14вюв3879100 0.3 1018310
23 апреля, пт
пт2301:00+14юв21081100 0.3 1017489
04:00+13юв41390100 0.1 1015614
07:00+13юв41190100 0.1 1015474
10:00+15юв51293100 1.3 1013641
13:00+16юв51197100 4.9 1011614
16:00+18юв71496100 1.1 1008829
19:00+17юв5119790 2.5 1007469
22:00+16вюв6139689 0.3 1008484